Flag Weather past 2 weeks in Louisville, Kentucky, U.S.A.

Now
37 °F

Passing clouds.


Feels Like: 30 °F
Forecast: 22 / 39 °F
Wind: 9 mph from Southeast

Location: Standiford Field

Current Time: Nov 28, 2014 at 6:34:28 PM

Latest Report: Nov 28, 2014 at 5:56 PM


Visibility: 10 mi

Pressure: 30.19 "Hg

Humidity: 52%

Dew point: 21 °F

Location of LouisvilleLocation

Historic Weather in Louisville — Graph

°F

Louisville temperature yesterday

Maximum temperature yesterday: 36 °F (at 12:56 AM)
Minimum temperature yesterday: 30 °F (at 5:56 PM)
Average temperature yesterday: 32 °F

Past Weeks' High & Low Weather Summary

 TemperatureHumidityPressure
High64 °F (Nov 22, 1:56 PM)97% (Nov 16, 8:56 PM)30.53 "Hg (Nov 16, 8:56 PM)
Low16 °F (Nov 18, 5:56 AM)28% (Nov 21, 2:56 PM)29.28 "Hg (Nov 23, 10:56 PM)
Average36 °F64%30.15 "Hg
* Reported Nov 13 4:56 PM — Nov 28 4:56 PM, Louisville, Weather by CustomWeather, © 2014

Note: Actual official high and low records may vary slightly from our data, if they occured in-between our weather recording intervals... More about our weather records

Advertising

Louisville weather history for previous 24 hours

 ConditionsComfort  
Time TempWeatherWind HumidityBarometerVisibility
4:56 PM
Nov 28
39 °FPassing clouds.13 mph48%30.20 "Hg10 mi
3:56 PM40 °FScattered clouds.14 mph47%30.22 "Hg10 mi
2:56 PM39 °FPartly sunny.8 mph46%30.25 "Hg10 mi
1:56 PM38 °FPartly sunny.12 mph48%30.29 "Hg10 mi
12:56 PM36 °FPartly sunny.9 mph54%30.32 "Hg10 mi
11:56 AM34 °FMostly cloudy.8 mph61%30.37 "Hg10 mi
10:56 AM32 °FPartly sunny.6 mph66%30.42 "Hg10 mi
9:56 AM30 °FPartly sunny.7 mph69%30.42 "Hg10 mi
8:56 AM27 °FPartly sunny.5 mph72%30.43 "Hg10 mi
7:56 AM27 °FMore clouds than sun.5 mph69%30.44 "Hg10 mi
6:56 AM27 °FOvercast.3 mph69%30.44 "Hg10 mi
5:56 AM27 °FMostly cloudy.No wind69%30.44 "Hg10 mi
4:56 AM26 °FPassing clouds.5 mph74%30.45 "Hg10 mi
3:56 AM26 °FPassing clouds.7 mph74%30.43 "Hg10 mi
2:56 AM25 °FPassing clouds.5 mph78%30.44 "Hg10 mi
1:56 AM26 °FPassing clouds.6 mph74%30.43 "Hg10 mi
12:56 AM28 °FPassing clouds.8 mph72%30.44 "Hg10 mi
11:56 PM
Nov 27
30 °FMostly cloudy.10 mph69%30.45 "Hg10 mi
10:56 PM30 °FLight snow. Overcast.8 mph72%30.45 "Hg8 mi
9:56 PM30 °FLight snow. Mostly cloudy.7 mph75%30.46 "Hg9 mi
8:56 PM30 °FLight snow. Overcast.9 mph75%30.46 "Hg9 mi
7:56 PM30 °FLight snow. Overcast.9 mph72%30.45 "Hg9 mi
6:56 PM30 °FOvercast.7 mph69%30.45 "Hg10 mi
Weather by CustomWeather, © 2014

See weather overviewHow to use our weather pages